Weather Roundup
Issued by NWS Chicago, IL

Home | Current Version | Previous Version | Text Only | Print | Product List | Glossary Off
Versions: 1 2 3 4 5 6 7 8 9 10 11 12 13 14 15 16 17 18 19 20 21 22 23 24 25 26 27 28 29 30 31 32 33 34 35 36 37 38 39 40 41 42 43 44 45 46 47 48 49 50

000
NZUS59 KLOT 231409
HRRLOT

CHICAGO AREA WEATHER ROUNDUP
NATIONAL WEATHER SERVICE CHICAGO/ROMEOVILLE IL
900 AM CDT FRI JUN 23 2017

NOTE: "FAIR" INDICATES FEW OR NO CLOUDS BELOW 12,000 FEET WITH NO
SIGNIFICANT WEATHER AND/OR OBSTRUCTIONS TO VISIBILITY.

* THESE STATIONS ARE NOT UNDER NWS QUALITY CONTROL. THEY ALSO MAY NOT
  REPORT WEATHER SUCH AS PRECIPITATION OR FOG.

ILZ005-006-012>014-019>023-231500-
NORTHEAST ILLINOIS

CITY           SKY/WX    TMP DP  RH WIND       PRES   REMARKS
OHARE          CLOUDY    69  62  78 N6        29.70S
MIDWAY         CLOUDY    69  65  86 N6        29.70S
AURORA         CLOUDY    69  65  86 N8        29.72R
LANSING*       CLOUDY    69  65  88 W3        29.70S
JOLIET*        DRIZZLE   71  68  92 N5        29.71S
WAUKEGAN       PTSUNNY   68  65  90 CALM      29.70R
DUPAGE AIRPORT CLOUDY    69  66  90 NE9       29.70S
WHEELING       PTSUNNY   69  65  86 N5        29.72S
MORRIS*        CLOUDY    69  66  92 N3        29.70S
LEWIS AIRPORT* RAIN      68  64  89 N8        29.71S
NORTHERLY ISL    N/A     65  62  90 N2          N/A
$$

WIZ051-052-058>065-066-070>072-231500-
SOUTHEAST WISCONSIN

CITY           SKY/WX    TMP DP  RH WIND       PRES   REMARKS
MILWAUKEE      CLOUDY    69  62  78 NW9       29.69R
KENOSHA*       PTSUNNY   68  62  81 NW6       29.71R
RACINE*        CLOUDY    68  62  81 W6        29.71R
WAUKESHA       SUNNY     64  61  88 NW10      29.71F
WEST BEND      CLOUDY    68  63  83 NW7       29.70R
$$

INZ001>003-010>013-019-020-231500-
NORTHWEST INDIANA

CITY           SKY/WX    TMP DP  RH WIND       PRES   REMARKS
GARY*          CLOUDY    68  66  94 NW9       29.72R
MICHIGAN CITY* NOT AVBL
RENSSELAER*    NOT AVBL
VALPARAISO     CLOUDY    69  67  93 NW7       29.71R
$$

LMZ740>746-231500-
SOUTHERN LAKE MICHIGAN

STATION/POSITION TIME  SKY/WX   TEMP WIND        PRES    VSBY
                                AIR  DIR/SP/G
                 (UTC)          (F)  (DEG/KT/KT) (MB)    (MI)
HARRISON CRIB    1340            65  340/  7/  7   N/A
BURNHAM HARBOR   1400            66                N/A
CALUMET HARBOR   1342            64  340/  8/ 14 1005.5R
BURNS HARBOR     1340            66  300/  8/ 11 1006.4R
MICHIGAN CITY    1340            66  250/ 19/ 25   N/A
$$

ABBREVIATIONS USED IN REMARKS
   TC - TEMPERATURE IN CELSIUS
  WCI - WIND CHILL INDEX
   HX - HEAT INDEX
  VSB - VISIBILITY
$$




USA.gov is the U.S. government's official web portal to all federal, state and local government web resources and services.